[[{"header":{"parameterUnit":"m.s-1","parameterCategory":1,"la1":30.2991,"la2":30.254,"lo1":-89.0895,"lo2":-89.0444,"dx":0.0017,"dy":0.0017,"nx":28,"ny":28,"refTime":"2022-11-28T15:00:00:Z","depth":0,"parameterNumber":2,"parameterNumberName":"U-component_of_WINDS"},"data":[0,0,0,0,0,0,0,0,0,0,0,0,0,0,0,0,0,0,0,0,0,0,0,0,0,0,0,0,0,0,0,0,0,0,0,0,0,0,0,0,0,0,0,0,0,0,0,0,0,0,0,0,0,0,0,0,0,0,2.4669,2.467,0,2.4746,2.4747,2.4748,2.4734,2.4732,2.4731,2.4729,2.4811,2.4814,2.4818,0,0,0,0,0,0,0,0,0,0,0,0,0,2.4511,2.4514,2.4669,2.467,2.4671,2.4746,2.4747,2.4748,2.4734,2.4732,2.473,2.4729,2.481,2.4814,2.4818,0,0,0,0,0,0,0,0,0,0,0,0,0,2.4583,2.4515,2.4669,2.4673,2.4674,2.4746,2.4747,2.4748,2.4734,2.4732,2.473,2.4728,2.4808,2.4813,2.4818,2.4892,0,0,2.4834,2.4836,0,0,0,0,0,0,0,0,2.4579,2.4589,2.4671,2.4672,2.4674,2.4728,2.4721,2.4797,2.4735,2.4711,2.4729,2.4727,2.4785,2.4792,2.4811,2.4896,2.4899,2.4835,2.4838,2.484,2.4842,0,0,0,0,0,0,0,2.4574,2.4586,2.4699,2.4672,2.4674,2.4671,2.4679,2.4736,2.4759,2.4713,2.4712,2.4722,2.4785,2.4806,2.4813,2.4901,2.4835,2.4839,2.4842,2.4844,2.5051,2.5053,0,0,0,0,0,0,2.4568,2.4582,2.4697,2.4702,2.462,2.4676,2.4685,2.4713,2.4758,2.4763,2.4723,2.4721,2.4798,2.4807,2.4816,2.4906,2.484,2.4845,2.4848,2.5048,2.5051,2.5054,0,0,0,0,0,0,2.4564,2.4578,2.4694,2.4642,2.4656,2.4681,2.4712,2.4715,2.4736,2.4766,2.477,2.474,2.4797,2.4808,2.4873,2.4908,2.4847,2.4852,2.5046,2.5049,2.5053,2.5085,0,0,0,0,0,0,2.456,2.4577,2.4604,2.4642,2.4659,2.4749,2.4715,2.4718,2.4745,2.4742,2.4783,2.4787,2.4796,2.4866,2.4878,2.4914,2.4856,2.5043,2.5047,2.5052,2.5081,2.509,2.5097,0,0,0,0,0,2.4554,2.4611,2.4606,2.462,2.4694,2.4751,2.4761,2.4769,2.4748,2.4776,2.4795,2.4786,2.4902,2.4872,2.4887,2.4925,2.5041,2.5046,2.5051,2.5078,2.5088,2.5097,0,0,0,0,0,0,2.4577,2.4616,2.4611,2.4681,2.4713,2.4749,2.4785,2.478,2.4819,2.4815,2.4824,2.4834,2.49,2.4919,2.4885,2.4999,2.4968,2.4977,2.4984,2.4994,2.5001,2.4996,2.486,0,0,0,0,0,2.459,2.4633,2.4665,2.4724,2.474,2.476,2.4785,2.4789,2.4823,2.4836,2.486,2.4894,2.4938,2.4967,2.5009,2.5084,2.5093,2.5117,2.5125,2.5131,2.5139,2.518,2.5192,2.5071,2.5071,2.5071,0,0,2.4618,2.4644,2.4671,2.4729,2.4754,2.4799,2.4771,2.482,2.4854,2.4844,2.4906,2.4926,2.4964,2.5034,2.5066,2.5052,2.5174,2.5138,2.5143,2.5147,2.5187,2.5198,2.5209,2.5075,2.5074,2.5074,0,0,2.4691,2.4715,2.4767,2.4793,2.4832,2.4845,2.4857,2.4894,2.4906,2.4969,2.4963,2.5004,2.5079,2.5107,2.5131,2.5216,2.521,2.523,2.527,2.5311,2.5321,2.5329,2.536,2.5371,2.5237,2.5237,2.5237,0,2.4721,2.4788,2.4795,2.4845,2.4871,2.4864,2.4917,2.4942,2.4993,2.5012,2.4995,2.509,2.5115,2.5192,2.5213,2.5233,2.5248,2.5225,2.5318,2.5327,2.5335,2.5365,2.5376,2.5239,2.5239,2.5239,2.5239,0,2.4823,2.4869,2.4907,2.4956,2.4986,2.5038,2.5054,2.5084,2.5085,2.51,2.5165,2.5195,2.5244,2.5263,2.5264,2.534,2.533,2.5316,2.5286,2.5349,2.5377,2.5388,2.5243,2.5242,2.5241,2.5241,0,0,2.4912,2.4964,2.4978,2.5001,2.5043,2.508,2.5131,2.5178,2.5204,2.524,2.5284,2.5348,2.5335,2.5363,2.5368,2.5404,2.547,2.5385,2.5386,2.54,2.5557,2.5567,2.558,2.5466,2.5468,2.547,2.5553,0,2.4989,2.5079,2.5088,2.5169,2.5213,2.5208,2.5253,2.5284,2.53,2.534,2.5358,2.5403,2.5383,2.5399,2.5434,2.5455,2.5502,2.5449,2.5508,2.551,2.5498,2.5595,2.5606,2.5683,2.5564,2.5566,2.5568,0,2.5092,2.513,2.5215,2.5252,2.5271,2.5311,2.5356,2.5394,2.543,2.5439,2.547,2.5471,2.5525,2.5492,2.5568,2.5531,2.5556,2.557,2.5573,2.5579,2.5542,2.5603,2.5708,2.572,2.5585,2.5584,2.5582,0,2.5148,2.5221,2.5282,2.5301,2.5346,2.5375,2.5395,2.5429,2.5457,2.5496,2.5514,2.556,2.5584,2.562,2.5633,2.5608,2.5708,2.5677,2.5718,2.5717,2.5739,2.5737,2.5849,2.5755,2.5755,2.5754,2.5754,0,2.5234,2.5287,2.5308,2.5346,2.5405,2.5415,2.5474,2.5492,2.5523,2.5565,2.5563,2.5602,2.5617,2.5659,2.567,2.5731,2.5743,2.5752,2.5754,2.5752,2.5751,2.5769,2.5764,2.5757,2.5757,2.5756,2.5756,0,2.5307,2.5324,2.539,2.5427,2.5438,2.548,2.5512,2.5549,2.5564,2.5617,2.563,2.5654,2.5704,2.5721,2.5781,2.5788,2.5859,2.5857,2.5847,2.5848,2.5888,2.5884,2.6015,2.6033,2.5926,2.5927,2.5928,0,2.5361,2.5401,2.5443,2.547,2.5492,2.5536,2.5565,2.5577,2.5607,2.5652,2.5683,2.5732,2.5772,2.5852,2.5875,2.5922,2.592,2.5963,2.5927,2.5924,2.5921,2.5919,2.5923,2.597,2.5971,2.5972,2.5972,0,2.5454,2.5461,2.5502,2.5546,2.558,2.5616,2.5651,2.5674,2.5691,2.5725,2.5775,2.5806,2.5868,2.5917,2.5964,2.5986,2.5983,2.5984,2.5996,2.5994,2.5986,2.5991,2.5866,2.598,2.598,2.5979,2.5979,2.5978,2.5519,2.5555,2.559,2.5637,2.5664,2.5696,2.5733,2.5753,2.5795,2.5846,2.5851,2.5905,2.5942,2.6005,2.6029,2.6072,2.606,2.6078,2.6082,2.6086,2.6089,2.598,2.6081,2.6081,2.6081,2.608,2.608,0,2.5613,2.5635,2.5678,2.5726,2.5763,2.5756,2.5794,2.5826,2.5874,2.5907,2.5947,2.6005,2.6053,2.6081,2.6129,2.6159,2.6158,2.6171,2.6169,2.6174,2.6097,2.6082,2.617,2.617,2.617,2.617,2.617,2.617,2.5665,2.5726,2.5737,2.5812,2.5834,2.5887,2.591,2.594,2.5967,2.6033,2.6072,2.609,2.6122,2.6172,2.6216,2.6223,2.6241,2.6255,2.6261,2.6189,2.6179,2.6171,2.6156,2.6259,2.6259,2.6334,2.6335,2.6336]},{"header":{"parameterUnit":"m.s-1","parameterCategory":1,"la1":30.2991,"la2":30.254,"lo1":-89.0895,"lo2":-89.0444,"dx":0.0017,"dy":0.0017,"nx":28,"ny":28,"refTime":"2022-11-28T15:00:00:Z","depth":0,"parameterNumber":3,"parameterNumberName":"V-component_of_WINDS"},"data":[0,0,0,0,0,0,0,0,0,0,0,0,0,0,0,0,0,0,0,0,0,0,0,0,0,0,0,0,0,0,0,0,0,0,0,0,0,0,0,0,0,0,0,0,0,0,0,0,0,0,0,0,0,0,0,0,0,0,3.2734,3.2735,0,3.2861,3.2862,3.2864,3.2869,3.2868,3.2866,3.2865,3.2998,3.3003,3.3008,0,0,0,0,0,0,0,0,0,0,0,0,0,3.2498,3.2502,3.2733,3.2735,3.2737,3.2861,3.2862,3.2864,3.287,3.2868,3.2866,3.2864,3.2996,3.3002,3.3008,0,0,0,0,0,0,0,0,0,0,0,0,0,3.261,3.2504,3.2733,3.2754,3.2757,3.286,3.2863,3.2865,3.287,3.2868,3.2865,3.2863,3.2994,3.3002,3.3009,3.3101,0,0,3.3032,3.3035,0,0,0,0,0,0,0,0,3.2604,3.2619,3.2749,3.2753,3.2757,3.2847,3.2828,3.2944,3.2871,3.2827,3.2865,3.2862,3.295,3.2961,3.299,3.3107,3.3113,3.3032,3.3037,3.304,3.3042,0,0,0,0,0,0,0,3.2596,3.2614,3.2784,3.2751,3.2756,3.2758,3.2772,3.285,3.29,3.2831,3.2832,3.2846,3.2951,3.2983,3.2993,3.3114,3.3032,3.3039,3.3043,3.3046,3.3316,3.3318,0,0,0,0,0,0,3.2584,3.2607,3.278,3.2788,3.2673,3.2764,3.2779,3.282,3.2899,3.2909,3.2848,3.2846,3.2971,3.2984,3.2998,3.3112,3.304,3.3047,3.3051,3.3313,3.3316,3.3319,0,0,0,0,0,0,3.2579,3.2599,3.2775,3.2698,3.272,3.2771,3.2817,3.2824,3.2855,3.2912,3.2921,3.2871,3.297,3.2987,3.3075,3.3117,3.305,3.3057,3.331,3.3314,3.3318,3.334,0,0,0,0,0,0,3.2572,3.2597,3.2632,3.2698,3.2724,3.2849,3.2819,3.2828,3.2868,3.2866,3.2936,3.2945,3.2969,3.3064,3.3083,3.3126,3.3063,3.3307,3.3312,3.3317,3.3336,3.3345,3.3352,0,0,0,0,0,3.2564,3.2633,3.2634,3.2654,3.2768,3.2852,3.2867,3.2892,3.2871,3.2907,3.2944,3.2943,3.3109,3.3073,3.3094,3.314,3.3304,3.331,3.3316,3.3333,3.3343,3.3352,0,0,0,0,0,0,3.2571,3.2642,3.2643,3.2736,3.2788,3.2852,3.2898,3.2902,3.2961,3.2958,3.2988,3.3003,3.3091,3.3124,3.3083,3.3234,3.3204,3.3215,3.321,3.322,3.3228,3.3219,3.3069,0,0,0,0,0,3.2583,3.2644,3.2703,3.2779,3.2805,3.2847,3.2885,3.29,3.2955,3.2977,3.302,3.3074,3.3139,3.3181,3.3243,3.334,3.3357,3.3382,3.339,3.3396,3.3406,3.3462,3.3475,3.3339,3.3339,3.3339,0,0,3.2609,3.2656,3.2692,3.2782,3.2824,3.2888,3.2866,3.2933,3.2982,3.2987,3.3074,3.3107,3.317,3.3264,3.3307,3.3294,3.3447,3.3404,3.3409,3.3415,3.347,3.3483,3.3494,3.3343,3.3343,3.3342,0,0,3.269,3.273,3.2799,3.2842,3.2905,3.2933,3.2949,3.3014,3.3036,3.3123,3.3129,3.3187,3.3297,3.3343,3.338,3.3479,3.3482,3.3498,3.354,3.3595,3.3606,3.3615,3.3653,3.3666,3.3507,3.3507,3.3507,0,3.2715,3.281,3.2834,3.2903,3.2943,3.2951,3.3022,3.3062,3.3143,3.3171,3.3155,3.3294,3.3337,3.3442,3.3467,3.3496,3.3518,3.3491,3.3602,3.3612,3.3621,3.3658,3.3672,3.3509,3.3509,3.3508,3.3508,0,3.2839,3.2905,3.2953,3.3031,3.3077,3.3146,3.3183,3.3226,3.3237,3.3267,3.3357,3.3408,3.3482,3.3508,3.3519,3.3616,3.3606,3.3595,3.3566,3.3636,3.3671,3.3685,3.3511,3.3511,3.351,3.351,0,0,3.2928,3.3019,3.3037,3.3073,3.3144,3.3196,3.3267,3.3339,3.3376,3.3432,3.3493,3.3587,3.3578,3.362,3.3637,3.3685,3.3763,3.3669,3.3671,3.3687,3.3876,3.3885,3.3901,3.3764,3.3767,3.3769,3.3871,0,3.3019,3.3144,3.3168,3.3278,3.3341,3.3349,3.3411,3.3462,3.3492,3.355,3.3584,3.365,3.3632,3.3658,3.3705,3.3743,3.3802,3.3736,3.3824,3.3827,3.3811,3.3918,3.3928,3.4022,3.3885,3.3887,3.3889,0,3.3141,3.32,3.3315,3.338,3.3407,3.3462,3.3531,3.3586,3.3645,3.3663,3.3711,3.3723,3.3799,3.3765,3.3871,3.3825,3.3863,3.3887,3.3891,3.3902,3.3864,3.3935,3.4052,3.4068,3.391,3.3908,3.3907,0,3.3198,3.3306,3.3389,3.342,3.3496,3.3535,3.3569,3.3625,3.3667,3.3728,3.3756,3.3824,3.3862,3.3916,3.3947,3.3918,3.4051,3.4019,3.4071,3.407,3.41,3.4098,3.4228,3.412,3.412,3.412,3.4119,0,3.3298,3.3369,3.3416,3.3468,3.3548,3.3576,3.3656,3.3689,3.3739,3.3799,3.381,3.3866,3.3902,3.3964,3.3988,3.4074,3.409,3.4109,3.4115,3.411,3.4108,3.4136,3.4131,3.4123,3.4122,3.4122,3.4121,0,3.3375,3.341,3.3502,3.3567,3.3585,3.3642,3.3698,3.3749,3.3779,3.3855,3.3874,3.3922,3.3995,3.4031,3.4121,3.4138,3.4236,3.4236,3.4216,3.4219,3.427,3.4266,3.4424,3.4448,3.4322,3.4323,3.4324,0,3.3438,3.3493,3.3564,3.3604,3.3639,3.3704,3.3747,3.3777,3.3822,3.3894,3.3937,3.4011,3.4071,3.4188,3.4232,3.4302,3.4306,3.4357,3.4317,3.431,3.4311,3.4308,3.4315,3.4365,3.4366,3.4367,3.4368,0,3.3546,3.3561,3.3622,3.3691,3.3742,3.3797,3.3851,3.3884,3.3923,3.3973,3.4048,3.4095,3.4188,3.4262,3.4336,3.4372,3.4378,3.438,3.4396,3.4392,3.4379,3.439,3.4238,3.4377,3.4376,3.4375,3.4375,3.4374,3.362,3.367,3.3729,3.3797,3.3841,3.3892,3.3945,3.3981,3.4044,3.4122,3.4135,3.4216,3.4275,3.4374,3.4413,3.4477,3.4466,3.4489,3.4495,3.4501,3.4505,3.4367,3.4491,3.449,3.449,3.449,3.449,0,3.3731,3.3769,3.3832,3.3908,3.3963,3.3962,3.4022,3.4069,3.4139,3.4193,3.4253,3.434,3.4412,3.4461,3.4535,3.4577,3.4582,3.4596,3.4594,3.4603,3.451,3.449,3.4591,3.4591,3.4591,3.4591,3.4591,3.4591,3.3796,3.3881,3.3903,3.4011,3.4049,3.4127,3.4162,3.421,3.4254,3.4351,3.4411,3.4442,3.4495,3.4573,3.464,3.4652,3.468,3.4695,3.4708,3.462,3.4609,3.4599,3.4581,3.47,3.47,3.4796,3.4797,3.4798]}]]